Regional Weather Roundup
Issued by NWS

Home | Current Version | Previous Version | Graphics & Text | Print | Product List | Glossary On
Versions: 1 2 3 4 5 6 7 8 9 10 11 12 13 14 15 16 17 18 19 20 21 22 23 24 25 26 27 28 29 30 31 32 33 34 35 36 37 38 39 40 41 42 43 44 45 46 47 48 49 50
000
ASUS43 KFSD 190510
RWRSD

WEATHER ROUNDUP FOR SOUTH DAKOTA
NATIONAL WEATHER SERVICE SIOUX FALLS SD
1200 AM CDT THU APR 19 2018

NOTE: "FAIR" INDICATES FEW OR NO CLOUDS BELOW 12,000 FEET WITH NO
SIGNIFICANT WEATHER AND/OR OBSTRUCTIONS TO VISIBILITY.


SDZ001>005-009-010-012>017-190600-
NORTHWEST AND NORTH CENTRAL SOUTH DAKOTA

CITY           SKY/WX    TMP DP  RH WIND       PRES   REMARKS
BUFFALO          N/A     39  30  70 E7        30.22R
FAITH            N/A     37  33  85 SE7       30.29R
MOBRIDGE       CLEAR     30  25  81 CALM      30.29R
$$

SDZ012>016-024>037-041>051-057-063-072>074-190600-
SOUTHWEST AND SOUTH CENTRAL SOUTH DAKOTA

CITY           SKY/WX    TMP DP  RH WIND       PRES   REMARKS
RAPID CTY ARPT CLEAR     35  32  88 CALM      30.29R
PIERRE         CLEAR     33  27  78 E3        30.30R
CUSTER         CLEAR     28  17  63 N5        30.26S WCI  23
ELLSWORTH AFB  CLEAR     38  36  90 S7        30.28R
PHILIP         CLEAR     37  34  89 SE5       30.31R
PINE RIDGE     PTCLDY    36  33  89 E5        30.29R
SPEARFISH      FAIR      34  27  75 S7        30.27F WCI  28
WINNER         FAIR      35  30  82 CALM      30.31R
$$

SDZ004>011-016>023-039-040-190600-
NORTHEAST SOUTH DAKOTA

CITY           SKY/WX    TMP DP  RH WIND       PRES   REMARKS
ABERDEEN       PTCLDY    34  30  85 NE3       30.30R
WATERTOWN      PTCLDY    35  30  82 W10       30.26R WCI  27
BROOKINGS      CLOUDY    33  28  81 CALM      30.27R
SISSETON         N/A     37  32  82 NW7       30.27R
$$

SDZ017-020-022-023-036>040-048>070-190600-
SOUTHEAST SOUTH DAKOTA

CITY           SKY/WX    TMP DP  RH WIND       PRES   REMARKS
SIOUX FALLS    CLOUDY    34  27  75 N9        30.25R WCI  27
HURON          CLEAR     34  29  82 CALM      30.29R
CHAMBERLAIN    CLEAR     35  32  88 N6        30.30R WCI  30
MITCHELL       PTCLDY    34  31  88 NW3       30.30R
YANKTON        CLEAR     33  31  92 NW8       30.27R WCI  26
$$

ABBREVIATIONS USED IN REMARKS
   TC - TEMPERATURE IN CELSIUS
  WCI - WIND CHILL INDEX
   HX - HEAT INDEX
  VSB - VISIBILITY





USA.gov is the U.S. government's official web portal to all federal, state and local government web resources and services.